User: anonymous   Login
Location: Unspecified
(0.0000°N, 0.0000°E)
Time: 23:51:35
(UTC+00:00)
Language:

STARLINK-33750 - Orbit

View from above orbital plane
View from above orbital plane
View from above satellite
View from above satellite

Ground track
Ground track

The orbit is defined by the following mean orbital elements,

1 63513U          26145.38316022 +.00000000 +00000-0 +41901-3 0 00002
2 63513  53.1600 143.5387 0001223  80.9504 279.1636 15.31714771    01
Epoch (UTC): 25 May 2026 09:11:45
Eccentricity: 0.0001223
inclination: 53.1600°
perigee height: 470 km
apogee height: 472 km
right ascension of ascending node: 143.5387°
argument of perigee: 80.9504°
revolutions per day: 15.31714771
mean anomaly at epoch: 279.1636°

The dashed part of the orbit path shows where the satellite is in the earth's shadow,  

DLR